Weather History for Orange, TX

Change the Weather History Date:

Saturday, November 2, 2013

  Actual Average Record
Temperature  
Mean Temperature 60 °F -  
Max Temperature 71 °F 74 °F 87 °F (1978)
Min Temperature 50 °F 52 °F 32 °F (1966)
Degree Days  
Heating Degree Days 5    
Growing Degree Days 10 (Base 50)    
Moisture  
Dew Point 49 °F    
Average Humidity 68    
Maximum Humidity 98    
Minimum Humidity 29    
Precipitation  
Precipitation 0.00 in - - ()
Sea Level Pressure  
Sea Level Pressure 30.12 in    
Wind  
Wind Speed 6 mph (NNW)    
Max Wind Speed 16 mph    
Max Gust Speed 22 mph    
Visibility 10 miles    
Events Rain    
Averages and records for this station are not official NWS values.
T = Trace of Precipitation, MM = Missing Value Source: NWS Daily Summary

Daily Weather History Graph

Daily Weather History Graph

Search for Another Location

Airport:

Trip Planner

Search our weather history database for the weather conditions in past years. The results will help you decide how hot, cold, wet, or windy it might be!

Date:

Astronomy

Nov. 02, 2013 Rise Set
Actual Time 7:30 AM CDT 6:26 PM CDT
Civil Twilight 7:05 AM CDT 6:51 PM CDT
Nautical Twilight 6:36 AM CDT 7:20 PM CDT
Astronomical Twilight 6:08 AM CDT 7:48 PM CDT
Moon 6:31 AM CDT (11/2) 5:57 PM CDT (11/2)
Length of Visible Light 11h 46m
Length of Day
10h 56m
Waning Crescent, 1% of the Moon is Illuminated
Nov 2
Waning Crescent
Nov 3
New
Nov 9
First Quarter
Nov 17
Full
Nov 25
Last Quarter

Hourly Weather History & Observations

Time (CDT) Temp. Dew Point Humidity Pressure Visibility Wind Dir Wind Speed Gust Speed Precip Events Conditions
12:15 AM 61.9 °F 61.3 °F 98% 30.00 in 10.0 mi WSW 6.9 mph - N/A Rain Rain
12:35 AM 64.6 °F 61.2 °F 89% 29.99 in 7.0 mi Calm Calm - N/A Rain Rain
12:55 AM 63.7 °F 62.2 °F 95% 29.96 in 10.0 mi ESE 5.8 mph - N/A Rain Light Rain
1:15 AM 64.4 °F 60.8 °F 88% 29.95 in 10.0 mi SE 3.5 mph - N/A   Overcast
1:35 AM 63.3 °F 58.8 °F 85% 29.95 in 10.0 mi NNW 3.5 mph - N/A   Mostly Cloudy
1:55 AM 61.5 °F 59.9 °F 94% 29.97 in 10.0 mi NNW 3.5 mph - N/A   Scattered Clouds
2:15 AM 60.8 °F 59.4 °F 95% 29.98 in 10.0 mi NNW 3.5 mph - N/A   Mostly Cloudy
2:35 AM 60.8 °F 59.4 °F 95% 29.98 in 10.0 mi North 3.5 mph - N/A   Overcast
2:55 AM 60.8 °F 59.0 °F 94% 30.00 in 10.0 mi NW 4.6 mph - N/A   Overcast
3:15 AM 61.0 °F 58.5 °F 91% 30.01 in 10.0 mi NNW 6.9 mph - N/A   Mostly Cloudy
3:35 AM 61.0 °F 58.1 °F 90% 30.01 in 10.0 mi North 4.6 mph - N/A   Mostly Cloudy
3:55 AM 61.0 °F 58.3 °F 91% 30.01 in 10.0 mi North 5.8 mph - N/A   Overcast
4:15 AM 60.1 °F 57.9 °F 93% 30.03 in 10.0 mi NNW 3.5 mph - N/A   Scattered Clouds
4:35 AM 60.1 °F 57.7 °F 92% 30.02 in 10.0 mi Calm Calm - N/A   Mostly Cloudy
4:55 AM 58.8 °F 57.2 °F 94% 30.03 in 10.0 mi NW 3.5 mph - N/A   Scattered Clouds
5:15 AM 58.3 °F 57.2 °F 96% 30.05 in 10.0 mi NW 8.1 mph - N/A   Clear
5:35 AM 58.8 °F 57.4 °F 95% 30.06 in 10.0 mi NW 4.6 mph - N/A   Clear
5:55 AM 58.6 °F 57.6 °F 96% 30.07 in 10.0 mi NW 4.6 mph - N/A   Clear
6:15 AM 58.3 °F 57.2 °F 96% 30.08 in 10.0 mi NW 4.6 mph - N/A   Clear
6:35 AM 58.8 °F 55.8 °F 90% 30.09 in 10.0 mi NW 9.2 mph - N/A   Clear
6:55 AM 59.4 °F 54.5 °F 84% 30.10 in 10.0 mi NW 5.8 mph - N/A   Clear
7:15 AM 58.5 °F 55.6 °F 90% 30.10 in 10.0 mi NW 8.1 mph - N/A   Clear
7:35 AM 58.1 °F 53.8 °F 86% 30.11 in 10.0 mi NW 6.9 mph - N/A   Clear
7:55 AM 57.6 °F 52.9 °F 84% 30.12 in 10.0 mi NW 9.2 mph - N/A   Clear
8:15 AM 57.7 °F 52.7 °F 83% 30.13 in 10.0 mi NW 8.1 mph - N/A   Clear
8:35 AM 58.3 °F 52.0 °F 80% 30.13 in 10.0 mi NW 9.2 mph - N/A   Clear
8:55 AM 59.0 °F 50.9 °F 74% 30.14 in 10.0 mi NW 8.1 mph - N/A   Clear
9:15 AM 59.9 °F 51.1 °F 73% 30.15 in 10.0 mi NW 8.1 mph - N/A   Clear
9:35 AM 60.8 °F 50.5 °F 69% 30.16 in 10.0 mi NW 11.5 mph 16.1 mph N/A   Clear
9:55 AM 61.5 °F 50.2 °F 66% 30.17 in 10.0 mi NW 10.4 mph 16.1 mph N/A   Clear
10:15 AM 62.6 °F 50.2 °F 64% 30.18 in 10.0 mi NNW 12.7 mph 20.7 mph N/A   Clear
10:35 AM 63.5 °F 49.3 °F 60% 30.18 in 10.0 mi NNW 9.2 mph 16.1 mph N/A   Clear
10:55 AM 64.2 °F 47.8 °F 55% 30.19 in 10.0 mi NNW 13.8 mph 18.4 mph N/A   Clear
11:15 AM 65.5 °F 47.5 °F 52% 30.19 in 10.0 mi NNW 10.4 mph 18.4 mph N/A   Clear
12:35 PM 68.0 °F 44.4 °F 43% 30.18 in 10.0 mi North 10.4 mph 18.4 mph N/A   Clear
12:55 PM 68.9 °F 44.2 °F 41% 30.18 in 10.0 mi NNW 11.5 mph 18.4 mph N/A   Clear
1:15 PM 69.3 °F 41.0 °F 36% 30.17 in 10.0 mi North 13.8 mph 21.9 mph N/A   Clear
1:35 PM 70.0 °F 42.1 °F 36% 30.16 in 10.0 mi NNW 11.5 mph 17.3 mph N/A   Clear
1:55 PM 69.8 °F 39.9 °F 34% 30.15 in 10.0 mi NW 16.1 mph 20.7 mph N/A   Clear
2:15 PM 70.5 °F 41.7 °F 35% 30.14 in 10.0 mi NNW 13.8 mph 20.7 mph N/A   Clear
2:35 PM 70.7 °F 41.5 °F 35% 30.13 in 10.0 mi North 10.4 mph 18.4 mph N/A   Clear
2:55 PM 70.7 °F 41.2 °F 34% 30.12 in 10.0 mi NNW 10.4 mph 18.4 mph N/A   Clear
3:15 PM 70.2 °F 40.3 °F 34% 30.12 in 10.0 mi NNW 11.5 mph 20.7 mph N/A   Clear
3:35 PM 70.5 °F 39.2 °F 32% 30.12 in 10.0 mi NNW 16.1 mph 21.9 mph N/A   Clear
3:55 PM 70.2 °F 36.7 °F 29% 30.12 in 10.0 mi NNW 13.8 mph 21.9 mph N/A   Clear
4:15 PM 70.5 °F 38.8 °F 32% 30.11 in 10.0 mi NNW 9.2 mph - N/A   Clear
4:35 PM 69.8 °F 38.5 °F 32% 30.11 in 10.0 mi NW 11.5 mph 17.3 mph N/A   Clear
4:55 PM 69.3 °F 36.0 °F 29% 30.12 in 10.0 mi NW 8.1 mph 17.3 mph N/A   Clear
5:15 PM 68.9 °F 36.0 °F 30% 30.12 in 10.0 mi NW 10.4 mph 17.3 mph N/A   Clear
5:35 PM 68.0 °F 35.8 °F 31% 30.13 in 10.0 mi NW 9.2 mph - N/A   Clear
5:55 PM 66.9 °F 36.7 °F 33% 30.13 in 10.0 mi NW 4.6 mph - N/A   Clear
6:15 PM 65.3 °F 38.8 °F 38% 30.14 in 10.0 mi NW 4.6 mph - N/A   Clear
6:35 PM 63.3 °F 39.6 °F 42% 30.15 in 10.0 mi Calm Calm - N/A   Clear
6:55 PM 61.0 °F 42.3 °F 50% 30.16 in 10.0 mi Calm Calm - N/A   Clear
7:15 PM 56.3 °F 46.4 °F 69% 30.16 in 10.0 mi Calm Calm - N/A   Clear
7:35 PM 54.1 °F 46.9 °F 77% 30.17 in 10.0 mi Calm Calm - N/A   Clear
7:55 PM 53.2 °F 47.1 °F 80% 30.18 in 10.0 mi Calm Calm - N/A   Clear
8:15 PM 53.1 °F 46.2 °F 78% 30.19 in 10.0 mi Calm Calm - N/A   Clear
8:35 PM 50.7 °F 47.3 °F 88% 30.20 in 10.0 mi Calm Calm - N/A   Clear
8:55 PM 53.4 °F 44.8 °F 73% 30.20 in 10.0 mi Calm Calm - N/A   Clear
9:15 PM 54.3 °F 44.2 °F 69% 30.21 in 10.0 mi Calm Calm - N/A   Clear
9:35 PM 53.8 °F 44.1 °F 70% 30.21 in 10.0 mi NW 3.5 mph - N/A   Clear
9:55 PM 53.1 °F 44.2 °F 72% 30.22 in 10.0 mi Calm Calm - N/A   Clear
10:15 PM 53.1 °F 43.7 °F 71% 30.23 in 10.0 mi Calm Calm - N/A   Clear
10:35 PM 52.7 °F 44.2 °F 73% 30.23 in 10.0 mi NNW 3.5 mph - N/A   Clear
10:55 PM 52.3 °F 43.9 °F 73% 30.23 in 10.0 mi NNW 3.5 mph - N/A   Clear
11:15 PM 52.0 °F 43.7 °F 73% 30.24 in 10.0 mi NNW 3.5 mph - N/A   Clear
11:35 PM 51.8 °F 43.5 °F 73% 30.24 in 10.0 mi NNW 3.5 mph - N/A   Clear
11:55 PM 51.1 °F 43.7 °F 76% 30.23 in 10.0 mi NW 3.5 mph - N/A   Clear